Regional Weather Roundup
Issued by NWS Cleveland, OH

Home | Current Version | Previous Version | Text Only | Print | Product List | Glossary Off
Versions: 1 2 3 4 5 6 7 8 9 10 11 12 13 14 15 16 17 18 19 20 21 22 23 24 25 26 27 28 29 30 31 32 33 34 35 36 37 38 39 40 41 42 43 44 45 46 47 48 49 50

000
ASUS41 KCLE 220910
RWRCLE
OHIO REGIONAL WEATHER ROUNDUP
NATIONAL WEATHER SERVICE WILMINGTON, OH
500 AM EDT FRI MAY 22 2015

NOTE: "FAIR" INDICATES FEW OR NO CLOUDS BELOW 12,000 FEET WITH NO
SIGNIFICANT WEATHER AND/OR OBSTRUCTIONS TO VISIBILITY.

OHZ001>008-015>018-024>027-034-035-043-044-221000-
   NORTHWEST OHIO

CITY           SKY/WX    TMP DP  RH WIND       PRES   REMARKS
DEFIANCE       MOCLDY    49  39  68 W3        30.07R
FINDLAY        CLOUDY    50  40  68 SW7       30.06R
TOLEDO EXPRESS CLOUDY    53  37  54 W12       30.05R
TOLEDO EXEC    CLOUDY    52  39  61 W7        30.06R
LIMA           CLEAR     47  38  71 W7        30.08R
$$

OHZ009>014-019>023-028>033-038-089-221000-
   NORTHEAST OHIO

CITY           SKY/WX    TMP DP  RH WIND       PRES   REMARKS
CLE-HOPKINS    CLOUDY    51  37  58 SW6       30.04S
CLE-LAKEFRONT  LGT RAIN  54  37  52 SW12      30.01S
CUY CO. ARPT   NOT AVBL
LORAIN-ELYRIA  CLOUDY    51  38  60 SW8       30.03S
ASHTABULA      PTCLDY    47  40  76 CALM      30.01R
AKRON-CANTON   CLOUDY    47  37  68 W7        30.05R
WOOSTER        CLOUDY    44  38  79 SW3       30.06R
MANSFIELD      PTCLDY    47  38  71 SW8       30.06R
YOUNGSTOWN     CLOUDY    47  38  71 SW9       30.02R
$$

OHZ042-051>053-060>062-070>072-077>081-221000-
  SOUTHWEST OHIO

CITY           SKY/WX    TMP DP  RH WIND       PRES   REMARKS
CINC-COVINGTON CLEAR     44  41  89 SW6       30.15R
CINC-LUNKEN    CLEAR     40  40 100 CALM      30.16R
HAMILTON       CLEAR     40  39  97 CALM      30.15R
DAYTON         CLEAR     45  41  86 SW8       30.11R
WRIGHT-PAT AFB CLEAR     44  41  87 S2        30.11R
DAYTON GENERAL CLEAR     44  41  89 SW7       30.12R
WILMINGTON     CLEAR     41  38  89 SW9       30.12R
$$

OHZ036-037-039>041-045>050-054>059-063>069-073>076-082>088-221000-
  CENTRAL AND SOUTHEAST OHIO

CITY           SKY/WX    TMP DP  RH WIND       PRES   REMARKS
COLUMBUS       CLEAR     44  40  85 CALM      30.10R
OSU AIRPORT    CLEAR     45  39  79 SW6       30.10R
BOLTON FIELD   NOT AVBL
RICKENBACK AFB CLEAR     42  39  91 S5        30.10S
NEWARK         CLEAR     43  39  86 SW5       30.10R
MARION         CLEAR     46  37  71 SW8       30.08R
LANCASTER      CLEAR     46  40  79 CALM      30.11R
ZANESVILLE     CLEAR     39  36  89 CALM      30.10R
NEW PHILLY     CLEAR     42  38  85 CALM      30.09R
$$


USA.gov is the U.S. government's official web portal to all federal, state and local government web resources and services.